Weather History for Tucumcari, NM

Change the Weather History Date:

Thursday, December 13, 2012

  Actual Average Record
Temperature  
Mean Temperature 48 °F -  
Max Temperature 68 °F 53 °F 73 °F (1929)
Min Temperature 28 °F 25 °F 3 °F (1963)
Degree Days  
Heating Degree Days 17    
Moisture  
Dew Point 15 °F    
Average Humidity 30    
Maximum Humidity 49    
Minimum Humidity 13    
Precipitation  
Precipitation 0.00 in - - ()
Sea Level Pressure  
Sea Level Pressure 29.97 in    
Wind  
Wind Speed 10 mph (WSW)    
Max Wind Speed 22 mph    
Max Gust Speed 29 mph    
Visibility 10 miles    
Events      
Averages and records for this station are not official NWS values.
T = Trace of Precipitation, MM = Missing Value Source: NWS Daily Summary

Daily Weather History Graph

Daily Weather History Graph

Search for Another Location

Airport:

Trip Planner

Search our weather history database for the weather conditions in past years. The results will help you decide how hot, cold, wet, or windy it might be!

Date:

Astronomy

Dec. 13, 2012 Rise Set
Actual Time 6:54 AM MST 4:43 PM MST
Civil Twilight 6:26 AM MST 5:11 PM MST
Nautical Twilight 5:54 AM MST 5:43 PM MST
Astronomical Twilight 5:23 AM MST 6:14 PM MST
Moon 7:06 AM MST (12/13) 5:27 PM MST (12/13)
Length of Visible Light 10h 45m
Length of Day
9h 48m
New Moon, 0% of the Moon is Illuminated
Dec 13
New Moon
Dec 19
First Quarter
Dec 28
Full
Jan 4
Last Quarter
Jan 11
New

Hourly Weather History & Observations

Time (MST) Temp. Windchill Dew Point Humidity Pressure Visibility Wind Dir Wind Speed Gust Speed Precip Events Conditions
12:53 AM 42.1 °F 35.7 °F 12.0 °F 29% 29.97 in 10.0 mi West 11.5 mph - N/A   Clear
1:53 AM 39.0 °F 34.0 °F 12.9 °F 34% 29.97 in 10.0 mi WSW 6.9 mph - N/A   Clear
2:53 AM 41.0 °F 34.7 °F 12.9 °F 32% 29.97 in 10.0 mi West 10.4 mph - N/A   Clear
3:53 AM 37.9 °F 29.6 °F 12.9 °F 36% 29.97 in 10.0 mi WSW 13.8 mph - N/A   Clear
4:53 AM 37.0 °F - 12.0 °F 36% 30.00 in 10.0 mi Calm Calm - N/A   Clear
5:53 AM 28.9 °F - 12.0 °F 49% 30.03 in 10.0 mi Calm Calm - N/A   Clear
6:53 AM 33.1 °F 27.7 °F 12.0 °F 42% 30.03 in 10.0 mi West 5.8 mph - N/A   Clear
7:53 AM 36.0 °F 32.1 °F 16.0 °F 44% 30.05 in 10.0 mi WSW 4.6 mph - N/A   Clear
8:53 AM 46.0 °F 42.5 °F 15.1 °F 29% 30.04 in 10.0 mi West 6.9 mph - N/A   Clear
9:53 AM 55.9 °F - 15.1 °F 20% 30.02 in 10.0 mi West 12.7 mph - N/A   Clear
10:53 AM 61.0 °F - 14.0 °F 16% 29.99 in 10.0 mi WSW 20.7 mph 28.8 mph N/A   Clear
11:53 AM 64.0 °F - 16.0 °F 16% 29.94 in 10.0 mi WSW 18.4 mph - N/A   Clear
12:53 PM 66.0 °F - 14.0 °F 13% 29.91 in 10.0 mi West 21.9 mph 28.8 mph N/A   Clear
1:53 PM 66.9 °F - 18.0 °F 15% 29.89 in 10.0 mi WSW 18.4 mph 26.5 mph N/A   Clear
2:53 PM 68.0 °F - 15.1 °F 13% 29.88 in 10.0 mi WSW 16.1 mph 24.2 mph N/A   Clear
6:53 PM 45.0 °F 41.2 °F 16.0 °F 31% 29.98 in 10.0 mi South 6.9 mph - N/A   Clear
7:53 PM 46.0 °F 43.9 °F 16.0 °F 30% 29.97 in 10.0 mi SSW 4.6 mph - N/A   Clear
8:53 PM 44.1 °F - 16.0 °F 32% 29.94 in 10.0 mi Calm Calm - N/A   Clear
9:53 PM 42.1 °F 35.7 °F 17.1 °F 37% 29.93 in 10.0 mi South 11.5 mph - N/A   Clear
11:53 PM 39.0 °F 34.0 °F 19.9 °F 46% 29.90 in 10.0 mi SSW 6.9 mph - N/A   Clear